Location: Ravensburg
(47.7866°N, 9.6124°E)
Time: 21:05:52
(UTC+02:00)

ITAMSAT 1 - Pass Details

Date: 17 March 2026
Orbit: 782 x 793 km, 98.7° (Epoch: 14 April)

Event Time Altitude Azimuth Distance (km) Brightness Sun altitude
Exits shadow 22:43:17 22° 297° (WNW) 1,652 9.7 -37.9°
Drops below altitude 10° 22:45:55 10° 324° (NW) 2,355 10.8 -38.2°
Sets 22:48:36 0° 336° (NNW) 3,291 11.8 -38.4°
